Weather History for Phuket, Thailand

Change the Weather History Date:

Wednesday, November 12, 2014

  Actual Average Record
Temperature  
Mean Temperature 80 °F -  
Max Temperature 89 °F 88 °F 95 °F (2002)
Min Temperature 72 °F 75 °F 72 °F (2013)
Cooling Degree Days 16    
Growing Degree Days 30 (Base 50)    
Moisture  
Dew Point 74 °F    
Average Humidity 78    
Maximum Humidity 95    
Minimum Humidity 57    
Precipitation  
Precipitation 0.31 in 0.19 in - ()
Sea Level Pressure  
Sea Level Pressure 29.86 in    
Wind  
Wind Speed 2 mph ()    
Max Wind Speed 10 mph    
Max Gust Speed -    
Visibility 5.8 miles    
Events Thunderstorm    
Averages and records for this station are not official NWS values.
T = Trace of Precipitation, MM = Missing Value Source: Averaged Metar Reports

Daily Weather History Graph

Daily Weather History Graph

Search for Another Location

Airport:

Trip Planner

Search our weather history database for the weather conditions in past years. The results will help you decide how hot, cold, wet, or windy it might be!

Date:

Astronomy

Nov. 12, 2014 Rise Set
Actual Time 6:17 AM ICT 6:03 PM ICT
Civil Twilight 5:55 AM ICT 6:25 PM ICT
Nautical Twilight 5:30 AM ICT 6:51 PM ICT
Astronomical Twilight 5:05 AM ICT 7:16 PM ICT
Moon 10:49 PM ICT (11/12) 10:44 AM ICT (11/12)
Length of Visible Light 12h 30m
Length of Day
11h 46m
Waning Gibbous, 72% of the Moon is Illuminated
Nov 12
Waning Gibbous
Nov 14
Last Quarter
Nov 22
New
Nov 29
First Quarter
Dec 6
Full

Hourly Weather History & Observations

Time (ICT) Temp. Heat Index Dew Point Humidity Pressure Visibility Wind Dir Wind Speed Gust Speed Precip Events Conditions
12:00 AM 77.0 °F - 71.6 °F 83% 29.89 in 5.6 mi East 3.5 mph - N/A   Mostly Cloudy
12:30 AM 77.0 °F - 73.4 °F 89% 29.89 in 5.6 mi East 4.6 mph - N/A   Mostly Cloudy
1:00 AM 78 °F - 73 °F 81% 29.86 in 6 mi Calm Calm - -   Scattered Clouds
1:00 AM 75.2 °F - 73.4 °F 94% 29.89 in 5.6 mi Calm Calm - N/A   Mostly Cloudy
1:30 AM 77.0 °F - 73.4 °F 89% 29.86 in 5.6 mi Calm Calm - N/A   Mostly Cloudy
3:00 AM 75.2 °F - 73.4 °F 94% 29.83 in 5.6 mi Calm Calm - N/A   Mostly Cloudy
3:30 AM 75.2 °F - 73.4 °F 94% 29.83 in 5.6 mi Calm Calm - N/A   Mostly Cloudy
4:00 AM 77 °F - 75 °F 92% 29.81 in 6 mi Calm Calm - -   Mist
4:00 AM 75.2 °F - 73.4 °F 94% 29.83 in 5.6 mi Calm Calm - N/A   Mostly Cloudy
4:30 AM 75.2 °F - 73.4 °F 94% 29.83 in 5.6 mi Calm Calm - N/A   Mostly Cloudy
5:00 AM 75.2 °F - 73.4 °F 94% 29.86 in 5.6 mi Calm Calm - N/A   Mostly Cloudy
5:30 AM 75.2 °F - 73.4 °F 94% 29.86 in 5.6 mi Calm Calm - N/A   Mostly Cloudy
6:00 AM 75.2 °F - 73.4 °F 94% 29.86 in 5.6 mi Calm Calm - N/A   Mostly Cloudy
6:30 AM 75.2 °F - 73.4 °F 94% 29.86 in 5.6 mi Calm Calm - N/A   Mostly Cloudy
7:00 AM 76 °F - 75 °F 95% 29.83 in 6 mi Calm Calm - -   Scattered Clouds
7:00 AM 77.0 °F - 75.2 °F 94% 29.86 in 5.6 mi ENE 3.5 mph - N/A   Mostly Cloudy
8:00 AM 82.4 °F 88.2 °F 73.4 °F 74% 29.89 in 5.6 mi East 4.6 mph - N/A   Mostly Cloudy
8:30 AM 82.4 °F 88.2 °F 73.4 °F 74% 29.92 in 6.2 mi WSW 3.5 mph - N/A   Mostly Cloudy
9:00 AM 84.2 °F 89.6 °F 71.6 °F 66% 29.92 in 6.2 mi Calm Calm - N/A   Mostly Cloudy
9:30 AM 86.0 °F 91.8 °F 71.6 °F 62% 29.92 in 6.2 mi East 3.5 mph - N/A   Mostly Cloudy
10:00 AM 86 °F - 76 °F 65% 29.89 in 6 mi Calm Calm - -   Scattered Clouds
10:00 AM 86.0 °F 91.8 °F 71.6 °F 62% 29.92 in 6.2 mi East 4.6 mph - N/A   Mostly Cloudy
10:30 AM 87.8 °F 93.8 °F 71.6 °F 58% 29.92 in 6.2 mi NNE 4.6 mph - N/A   Mostly Cloudy
11:00 AM 86.0 °F 91.8 °F 71.6 °F 62% 29.92 in 6.2 mi East 5.8 mph - N/A   Mostly Cloudy
11:30 AM 87.8 °F 93.8 °F 71.6 °F 58% 29.89 in 6.2 mi Variable 3.5 mph - N/A   Scattered Clouds
12:00 PM 87.8 °F 95.6 °F 73.4 °F 62% 29.89 in 6.2 mi WSW 5.8 mph - N/A   Scattered Clouds
12:30 PM 86.0 °F 95.1 °F 75.2 °F 70% 29.86 in 6.2 mi WNW 8.1 mph - N/A   Scattered Clouds
1:00 PM 88 °F - 76 °F 60% 29.83 in 6 mi West 2.3 mph - -   Scattered Clouds
1:00 PM 87.8 °F 95.6 °F 73.4 °F 62% 29.86 in 6.2 mi WNW 5.8 mph - N/A   Scattered Clouds
1:30 PM 87.8 °F 95.6 °F 73.4 °F 62% 29.86 in 6.2 mi West 8.1 mph - N/A   Scattered Clouds
2:00 PM 89.6 °F 99.8 °F 75.2 °F 62% 29.83 in 6.2 mi Variable 3.5 mph - N/A   Scattered Clouds
2:30 PM 87.8 °F 95.6 °F 73.4 °F 62% 29.80 in 6.2 mi West 6.9 mph - N/A   Scattered Clouds
3:00 PM 87.8 °F 95.6 °F 73.4 °F 62% 29.80 in 6.2 mi West 8.1 mph - N/A   Scattered Clouds
3:30 PM 87.8 °F 95.6 °F 73.4 °F 62% 29.77 in 6.2 mi West 10.4 mph - N/A   Scattered Clouds
4:00 PM 89 °F - 76 °F 57% 29.77 in 6 mi West 3.5 mph - -   Scattered Clouds
4:00 PM 86.0 °F 93.4 °F 73.4 °F 66% 29.77 in 6.2 mi West 10.4 mph - N/A   Scattered Clouds
5:00 PM 86.0 °F 93.4 °F 73.4 °F 66% 29.77 in 6.2 mi West 9.2 mph - N/A   Scattered Clouds
7:00 PM 85 °F - 76 °F 67% 29.77 in 5 mi Calm Calm - - Thunderstorm Thunderstorm
9:00 PM 77.0 °F - 73.4 °F 89% 29.89 in 6.2 mi Calm Calm - N/A   Mostly Cloudy
9:30 PM 77.0 °F - 75.2 °F 94% 29.89 in 6.2 mi Calm Calm - N/A   Mostly Cloudy
10:00 PM 79 °F - 76 °F 89% 29.84 in 6 mi Calm Calm - -   Partly Cloudy
10:00 PM 77.0 °F - 75.2 °F 94% 29.89 in 5.0 mi Calm Calm - N/A   Mostly Cloudy
10:30 PM 77.0 °F - 75.2 °F 94% 29.89 in 5.0 mi Calm Calm - N/A Thunderstorm Thunderstorm
11:00 PM 78.8 °F - 75.2 °F 89% 29.92 in 5.0 mi ESE 4.6 mph - N/A   Mostly Cloudy
11:30 PM 77.0 °F - 73.4 °F 89% 29.92 in 5.0 mi ESE 3.5 mph - N/A   Mostly Cloudy